Wink, TX

9:21 AM CST on January 21, 2018 (GMT -0600)
Winkler County

Weather History for KINK - October, 2010

Change the Weather History Date:

Wednesday, October 6, 2010

  Actual Average Record
Temperature  
Mean Temperature 70 °F -  
Max Temperature 84 °F 81 °F 98 °F (2007)
Min Temperature 55 °F 55 °F 43 °F (2013)
Cooling Degree Days 4    
Growing Degree Days 20 (Base 50)    
Moisture  
Dew Point 48 °F    
Average Humidity 50    
Maximum Humidity 78    
Minimum Humidity 25    
Precipitation  
Precipitation 0.00 in - - ()
Sea Level Pressure  
Sea Level Pressure 30.14 in    
Wind  
Wind Speed 10 mph (ESE)    
Max Wind Speed 14 mph    
Max Gust Speed 21 mph    
Visibility 10 miles    
Events      
Averages and records for this station are not official NWS values.
T = Trace of Precipitation, MM = Missing Value Source: NWS Daily Summary

Daily Weather History Graph

Daily Weather History Graph

Search for Another Location

Airport or City:

Trip Planner

Search our weather history database for the weather conditions in past years. The results will help you decide how hot, cold, wet, or windy it might be!

Date:

Astronomy

Oct. 06, 2010 Rise Set
Actual Time 7:49 AM CDT 7:31 PM CDT
Civil Twilight 7:25 AM CDT 7:55 PM CDT
Nautical Twilight 6:57 AM CDT 8:23 PM CDT
Astronomical Twilight 6:28 AM CDT 8:52 PM CDT
Moon 6:31 AM CDT (10/6) 6:36 PM CDT (10/6)
Length of Visible Light 12h 30m
Length of Day
11h 41m
Waning Crescent, 2% of the Moon is Illuminated
Oct 6
Waning Crescent
Oct 7
New
Oct 14
First Quarter
Oct 22
Full
Oct 30
Last Quarter

Hourly Weather History & Observations

Time (CDT) Temp. Dew Point Humidity Pressure Visibility Wind Dir Wind Speed Gust Speed Precip Events Conditions
12:53 AM 64.4 °F 51.8 °F 64% 30.24 in 10.0 mi SE 10.4 mph - N/A   Clear
3:53 AM 59.0 °F 51.1 °F 75% 30.12 in 10.0 mi ESE 5.8 mph - N/A   Clear
4:53 AM 57.9 °F 50.0 °F 75% 30.11 in 10.0 mi ESE 9.2 mph - N/A   Clear
5:53 AM 57.9 °F 51.1 °F 78% 30.12 in 10.0 mi ESE 9.2 mph - N/A   Clear
6:53 AM 57.0 °F 50.0 °F 77% 30.15 in 10.0 mi ESE 6.9 mph - N/A   Clear
7:53 AM 55.0 °F 48.0 °F 77% 30.17 in 10.0 mi East 4.6 mph - N/A   Clear
8:53 AM 57.9 °F 46.9 °F 67% 30.20 in 10.0 mi East 5.8 mph - N/A   Clear
9:53 AM 63.0 °F 48.0 °F 58% 30.21 in 10.0 mi ESE 11.5 mph - N/A   Clear
10:53 AM 68.0 °F 50.0 °F 52% 30.20 in 10.0 mi ESE 13.8 mph - N/A   Clear
11:53 AM 73.0 °F 51.1 °F 46% 30.19 in 10.0 mi ESE 12.7 mph - N/A   Clear
12:53 PM 75.9 °F 51.1 °F 42% 30.18 in 10.0 mi SE 12.7 mph 19.6 mph N/A   Clear
1:53 PM 79.0 °F 50.0 °F 36% 30.16 in 10.0 mi SE 12.7 mph - N/A   Clear
2:53 PM 81.0 °F 46.9 °F 30% 30.12 in 10.0 mi SE 9.2 mph 19.6 mph N/A   Clear
3:53 PM 82.9 °F 46.9 °F 28% 30.10 in 10.0 mi ESE 13.8 mph 20.7 mph N/A   Clear
4:53 PM 84.0 °F 46.0 °F 26% 30.08 in 10.0 mi SE 12.7 mph 19.6 mph N/A   Clear
5:53 PM 82.9 °F 44.1 °F 25% 30.08 in 10.0 mi SE 12.7 mph - N/A   Clear
6:53 PM 80.1 °F 45.0 °F 29% 30.08 in 10.0 mi SE 12.7 mph - N/A   Clear
7:53 PM 75.9 °F 46.0 °F 35% 30.10 in 10.0 mi SE 10.4 mph - N/A   Clear
8:53 PM 72.0 °F 46.0 °F 40% 30.13 in 10.0 mi ESE 8.1 mph - N/A   Clear
9:53 PM 70.0 °F 46.0 °F 42% 30.14 in 10.0 mi SE 8.1 mph - N/A   Clear
10:53 PM 66.0 °F 45.0 °F 47% 30.15 in 10.0 mi SE 8.1 mph - N/A   Clear